STARLINK-5129, 54004

Orbit data source: Space-Track

STARLINK-5129, 54004 is a payload satellite owned by SpaceX/Seattle (US) in LEO that was launched on Wed, 05 Oct 2022 UTC via an FALCON 9 launch vehicle from the Air Force Western Test Range (AFWTR). Payload-class satellites include a variety of spacecraft equipped with specific instruments for various scientific and technological missions. These include communications satellites like Starlink; space stations such as the ISS; scientific satellites like the Hubble; Earth observation satellites from companies like Planet Labs, Umbra, and HawkEye 360; GPS; miniature CubeSats for education and research; and military/defense satellites.

Loading next visibility...
Identifier
54004, 2022-125AS
Orbit
LEO
Country
Flag of USUS
Related business
Manufacturer
SpaceX/Seattle
Mission
Operational Commercial Communications
Bus & Motor
STARLINK, Unknown motor
Mass
305 kg wet, ~290 kg dry
Launch date (UTC)
2022-10-05 (4 years ago)
Launch vehicle
FALCON 9
Launch site
Air Force Western Test Range (AFWTR)
Object type
Payload
Rocket body
Debris
Shape & HBR
Box + 1 Pan, 10.1 m
Radar Cross Section
13.562 m², Large (>1 m²)

Expand to show TLE details & history
Last TLE update: 3 days ago

TLE from 3 days ago
0 STARLINK-5129
1 54004U 22125AS  26170.87569929 -.00001905  00000-0 -10160-3 0  9994
2 54004  53.1614 114.9611 0001684  88.6077 271.5107 15.08839495204891
Epoch: 2026-06-19T21:01Z
TLE epoch observation values (Epoch: 2026-06-19T21:01:00.418Z)
Latitude
-0.00006°
Longitude
-108.38908°
Altitude
540.606 km
Speed
7.593 km/s
True Right ascension
07h 39m 50s
True Declination
0° 00' 00"
Sunlit
Object was in daylight at epoch
Visualization orbit readout
Latitude
Unknown
Longitude
Unknown
Altitude
Unknown
Speed
Unknown
Apparent Right ascension
Unknown
Apparent Declination
Unknown
Sunlit
N/A
Visualization observer readout
Local Sidereal Time
21:29:44
Azimuth
Unknown
Elevation
Unknown
Doppler factor
Unknown
Orbital elements
Apogee altitude
541.164 km
Perigee altitude
538.834 km
Semi-major axis
6,918.136 km
Eccentricity
0.00017
Inclination
53.1614°
RAAN
114.9611°
Arg. of periapsis
88.6077°
True anomaly
271.49141°
Mean anomaly
271.5107°
Eccentric anomaly
271.50105°
Mean motion
3.77189 °/min
Orbital period
95.44 mins
BSTAR
-0.0001016
Loading maneuver chart data...
Computing Atmospheric mass density...
Loading historical data...
Loading historical data...
Loading historical data...
Loading historical data...
Loading historical data...
Loading historical data...
Loading historical data...

Documentation

Showing up to 5 results
|